Tracking 20093 objects as of 16-Dec-2019
HD Live streaming from Space Station
objects crossing your sky now

FENGYUN 1C DEB

Track FENGYUN 1C DEB now!
10-day predictions


NORAD ID: 30508
Int'l Code: 1999-025AHW
Perigee: 617.7 km
Apogee: 1,002.5 km
Inclination: 99.3 °
Period: 100.9 minutes
Semi major axis: 7181 km
RCS: 0.0117 m2 (small)
Launch date: May 10, 1999
Source: People's Republic of China (PRC)
Launch site: Taiyaun Space Center, China (TSC)

Note: This is SATELLITE DEBRIS
aabbcc
Your satellite tracking list
Your tracking list is empty




NASA's NSSDC Master Catalog

Two Line Element Set (TLE):
1 30508U 99025AHW 19349.98667778  .00001736  00000-0  50748-3 0  9999
2 30508  99.2504 176.8867 0267910  16.7589 137.6423 14.26654035664830
Source of the keplerian elements: AFSPC